Location: ?????????
(53.2086°N, 54.0693°E)
Time: 23:04:32
(UTC+00:00)

Okean-O - Pass Details

Date: 08 December 2019
Orbit: 639 x 641 km, 98.2° (Epoch: 19 January)

Event Time Altitude Azimuth Distance (km) Brightness Sun altitude
Rises 14:46:28 0° 189° (S) 2,937 6.2 -22.6°
Reaches altitude 10° 14:48:50 10° 198° (SSW) 2,032 5.5 -22.9°
Maximum altitude 14:52:52 34° 264° (W) 1,069 4.3 -23.5°
Drops below altitude 10° 14:56:55 10° 329° (NNW) 2,047 5.5 -24.1°
Sets 14:59:19 0° 339° (NNW) 2,961 6.2 -24.5°
